Location: Newark
(39.9500°N, 8.6833°E)
Time: 05:42:59
(UTC+00:00)

NO-84 - Pass Details

Date: 24 February 2020
Orbit: 328 x 491 km, 55.0° (Epoch: 01 April)

Event Time Altitude Azimuth Distance (km) Brightness Sun altitude
Exits shadow 03:29:13 10° 27° (NNE) 1,651 ? -30.8°
Drops below altitude 10° 03:29:25 10° 30° (NNE) 1,667 ? -30.8°
Sets 03:33:09 0° 69° (ENE) 2,502 ? -30.1°
